HULIANWAN GAOGUI-03 (H*) (61503 NORAD) Tracking and Keplerian Element Data

This shows tracking and keplerian element data for the satellite.

Feedback or suggestion? Click here.




ElementValue
Catalog61503
NameHULIANWAN GAOGUI-03 (H*)
Epoch Orbit0
Epoch Day284.71070559
Epoch Year2024
RAAN224.3262
Inclination28.4215
Eccentricity0.730091
Argument of Perigee179.4337
Mean Anonmoly97.1562
Mean Motion2.28284594
Decay Rate4.17E-06
L11 61503U 24181A 24284.71070559 .00000417 -72097-6 00000+0 0 9998
L22 61503 28.4215 224.3262 7300910 179.4337 97.1562 2.28284594 08



Live tracking and technical data element details for HULIANWAN GAOGUI-03 (H*) (NORAD 61503). HULIANWAN GAOGUI-03 (H*) can be tracked NOW for your location showing map with azimuth and elevation plus other details from your city location.







IsCatalogInMostPopularTable: catalog: 61503, numindb: 36
Update: records affected: 1



GetName: 61503 HULIANWAN GAOGUI-03 (H*)

Hit Count: updated at: Wed, 04 Dec 2024 10:14:10 GMT